Temperature
11 11 11 11 11 11 11 11 11 12 12 12 12 12 12 12 12 12 12 12 12 12 12 12 12 12 12 12 12 12 12 12 12 12 12 12 12 12 12 12 12 12 12
11 11 11 11 11 11 11 11 11 11 11 11 11 11 11 12 12 12 12 12 12 11 11 11 11 11 11 11 11 11 11 11 11 11 11 11 11 11 11 11 11 11 11
10 10 10 10 10 10 10 10 10 10 10 11 11 11 11 11 11 11 11 11 11 11 11 11 11 10 10 10 10 11 11 11 11 10 11 11 11 11 11 11 11 11 11
10 10 10 10 10 10 10 10 10 10 10 10 10 10 10 11 11 11 11 10 10 10 10 10 10 10 10 10 10 10 10 10 10 10 10 10 10 10 10 10 10 11 11
10 10 9 9 9 9 9 9 9 9 9 10 10 10 10 10 10 10 10 10 10 9 9 9 9 9 9 9 9 10 10 10 10 10 10 10 10 10 10 10 10 10 10
9 9 9 9 9 9 9 9 9 9 9 9 9 9 9 10 10 9 9 9 9 9 9 9 9 9 9 9 9 9 9 9 9 9 9 9 9 9 9 9 9 10 10
9 9 9 9 8 8 8 8 8 8 8 8 8 8 9 9 9 8 8 8 8 8 8 8 8 8 8 8 8 8 9 9 9 9 9 9 9 9 9 9 9 9 9
8 8 8 8 8 8 8 8 8 7 7 7 7 6 6 7 8 8 8 8 7 7 8 8 8 8 8 8 8 8 8 8 8 8 8 8 8 8 8 8 8 9 9
8 8 8 8 8 8 7 7 7 7 7 7 6 6 5 6 6 7 7 7 7 7 7 7 7 7 7 7 7 7 7 8 8 7 7 7 8 8 8 8 8 8 8
7 7 7 7 7 7 7 7 7 6 6 6 6 6 5 5 5 5 6 6 6 6 6 7 7 7 7 7 7 7 7 7 7 7 7 7 7 7 7 7 7 8 8
7 7 7 7 7 7 6 6 6 6 6 5 5 5 5 5 5 4 4 5 6 6 6 6 6 6 6 6 6 6 6 6 6 6 6 6 6 7 7 7 7 7 7
7 7 6 6 6 6 6 6 6 6 5 5 5 5 5 4 4 4 4 4 5 5 5 5 5 5 5 5 5 6 6 6 6 6 6 6 6 6 6 6 7 7 7
6 6 6 6 6 6 6 5 5 5 5 5 5 5 4 4 4 4 4 3 4 4 4 5 5 5 5 5 5 5 5 5 5 5 5 5 6 6 6 6 6 6 6
6 6 6 6 6 5 5 5 5 5 5 4 4 4 4 4 4 4 3 3 3 3 4 4 4 4 4 4 5 5 5 5 5 5 5 5 5 5 5 6 6 6 6
6 6 6 6 6 5 5 5 5 5 4 4 4 4 4 4 3 3 3 3 3 2 3 4 4 4 4 4 4 4 4 4 4 4 5 5 5 5 5 5 5 6 5
6 6 6 5 5 5 5 5 4 4 4 4 4 3 3 3 3 3 3 2 2 2 2 3 3 3 3 3 3 4 4 4 4 4 4 4 4 4 5 5 5 5 5
5 5 5 5 5 5 4 4 4 4 4 4 3 3 3 3 2 2 2 2 2 2 2 2 3 3 3 3 3 3 3 3 3 4 4 4 4 4 4 4 4 5 5
5 5 5 5 5 4 4 4 4 4 3 3 3 3 2 2 2 2 2 2 2 2 1 2 2 2 2 2 2 3 3 3 3 3 3 3 3 4 4 4 4 4 4
5 5 4 4 4 4 4 4 3 3 3 3 2 2 2 2 2 2 1 1 1 1 1 1 1 2 2 2 2 2 2 2 3 3 3 3 3 3 4 4 4 4 4
4 4 4 4 4 4 3 3 3 3 3 2 2 2 2 1 1 1 1 1 1 1 1 1 1 1 1 1 1 2 2 2 2 2 3 3 3 3 3 4 4 4 4
4 4 4 4 3 3 3 3 2 2 2 2 2 2 1 1 1 1 1 0 0 0 0 0 0 1 1 1 1 1 1 2 2 2 2 3 3 3 3 3 3 3 3
4 4 3 3 3 3 3 2 2 2 2 2 1 1 1 1 1 0 0 0 0 0 0 0 0 0 1 1 1 1 1 1 1 2 2 2 2 3 3 3 3 3 3
3 3 3 3 3 3 2 2 2 2 1 1 1 1 1 1 0 0 0 0 0 0 -0 -0 -0 0 0 1 0 1 1 1 1 1 1 2 2 2 2 2 2 2 3
3 3 3 2 2 2 2 2 2 1 1 1 1 1 0 0 0 -0 -0 -0 0 0 -0 -0 -0 -0 0 0 0 0 0 0 1 1 1 1 1 1 2 2 2 2 2
3 2 2 2 2 2 2 1 1 1 1 0 0 0 0 -0 -0 -1 -1 -0 -0 -0 -0 -0 -0 0 0 0 0 0 0 0 0 1 1 0 1 1 1 1 1 2 2
2 2 2 2 1 1 1 1 1 0 -0 -0 0 0 0 -0 -0 -1 -1 -1 -1 -1 -0 -0 -0 0 0 -0 -0 -0 -0 -0 0 -0 0 0 0 0 -0 0 1 1 1
Wind_Speed
1 2 2 3 4 5 4 3 3 3 3 3 2 3 3 3 4 3 3 5 6 8 10 11 11 11 11 11 11 11 11 11 11 10 11 11 12 12 12 12 12 13 13
2 1 1 2 3 4 4 4 4 3 3 2 3 3 4 4 4 3 4 5 7 8 10 12 12 13 13 13 13 13 13 12 13 12 11 11 11 13 13 13 13 14 14
2 1 1 1 3 4 5 4 4 3 3 3 4 4 3 4 4 4 4 5 6 8 10 12 13 14 14 14 14 14 14 14 14 13 12 12 12 13 14 14 14 15 15
2 1 1 1 3 4 3 3 3 3 3 4 4 4 4 4 5 4 4 4 5 6 7 11 13 14 14 15 16 16 15 15 15 14 14 13 13 14 14 15 15 14 16
2 1 1 1 3 2 2 3 3 3 4 4 5 4 4 4 5 5 5 4 5 5 6 9 11 13 14 15 16 16 16 16 16 15 15 15 15 14 15 16 17 17 16
1 2 1 2 2 2 2 3 3 3 3 4 6 6 4 5 4 4 5 4 4 6 6 7 7 10 14 15 16 17 17 17 16 16 16 16 16 16 17 17 17 18 18
0 1 1 2 2 2 3 3 3 4 4 4 4 5 5 4 5 3 3 4 5 6 6 6 6 7 9 13 15 17 17 16 17 17 17 17 17 17 17 17 18 18 18
1 1 1 2 2 2 3 3 3 3 3 3 2 4 4 4 2 4 4 5 5 4 5 6 7 7 7 7 10 15 16 17 17 17 18 18 18 18 18 18 18 18 18
2 1 2 2 2 2 2 3 3 3 3 3 2 2 2 4 5 3 4 4 4 4 5 5 6 7 8 7 8 11 15 17 18 18 17 18 19 19 19 18 19 19 18
2 2 2 2 2 2 3 3 3 3 3 4 3 3 4 4 4 5 4 4 5 6 6 6 6 7 8 7 9 12 14 16 17 18 17 18 18 19 19 19 19 18 18
3 3 3 2 3 3 3 4 4 3 3 4 4 4 5 4 5 6 8 6 6 5 6 6 6 6 7 7 7 11 14 15 17 17 18 18 19 19 19 19 18 18 17
3 3 3 3 3 3 4 4 4 4 4 5 4 4 4 4 4 5 7 9 9 7 7 6 6 6 6 7 9 13 15 16 16 17 18 18 18 20 19 19 18 18 18
3 4 3 3 3 4 4 4 4 5 5 5 5 5 5 5 5 5 7 9 10 8 6 6 5 5 7 6 8 13 14 16 16 17 16 16 17 18 19 18 18 18 18
3 3 3 4 4 5 5 5 4 5 5 5 7 6 5 5 5 5 6 7 10 9 7 7 5 5 5 6 9 12 10 15 16 16 16 16 17 18 18 17 17 17 17
3 3 3 4 5 5 5 5 5 6 5 5 6 6 6 5 5 5 5 5 7 11 11 8 5 5 5 6 9 9 9 14 16 16 16 16 16 17 17 17 16 16 16
3 3 3 4 5 5 5 5 5 5 6 6 5 6 6 6 5 5 5 6 6 8 11 9 7 7 8 9 12 10 9 15 16 16 16 16 16 16 16 16 15 16 16
3 3 4 4 5 5 5 5 6 6 6 7 7 7 7 6 5 5 5 5 6 6 11 11 8 8 9 8 8 8 9 9 10 15 16 15 15 15 16 15 15 15 15
3 3 4 4 5 5 5 5 6 6 7 7 7 7 8 7 7 6 6 6 6 7 9 12 11 9 9 8 8 8 9 9 8 13 15 14 14 14 14 14 14 14 14
3 3 4 4 5 5 5 6 6 6 7 7 7 8 8 7 8 7 7 7 7 8 7 9 11 9 8 7 8 8 8 7 8 10 12 12 12 12 13 12 12 12 12
3 4 4 5 5 5 6 6 6 6 7 7 7 8 8 8 9 8 8 8 7 8 8 9 10 9 8 7 6 7 7 5 6 7 8 9 10 10 10 10 10 9 8
4 3 4 5 5 5 5 5 5 6 7 7 8 8 8 10 11 10 9 7 7 7 8 8 9 9 8 7 6 6 7 6 6 5 5 5 5 4 4 6 5 5 5
3 3 4 5 5 6 8 9 8 6 7 7 8 8 8 9 10 13 14 14 12 10 9 9 9 10 10 8 7 6 6 7 6 3 3 5 3 2 2 2 3 3 3
3 3 4 5 6 6 9 10 10 7 6 7 8 8 8 8 9 8 11 13 12 15 14 11 10 11 10 8 8 8 7 7 7 5 4 5 3 3 3 2 2 3 3
3 4 5 5 5 7 9 10 11 7 6 7 7 7 7 7 8 8 8 8 8 9 11 9 8 9 9 8 7 7 7 6 6 4 3 4 3 3 3 2 2 2 3
3 4 4 5 5 6 9 11 10 6 6 7 8 7 7 7 11 12 8 8 9 8 10 10 10 9 10 9 7 5 4 4 5 4 2 2 2 2 3 2 3 4 3
3 4 4 4 5 5 8 10 10 5 6 7 7 7 9 10 12 12 8 7 8 8 7 7 7 7 6 6 7 4 4 4 4 3 2 1 2 1 2 2 3 3 3
Wind_Direction
14 20 19 13 6 354 348 335 335 328 315 310 297 291 283 285 282 280 247 244 256 268 276 275 271 269 268 268 266 263 258 256 255 254 251 248 245 245 246 243 245 239 239
34 20 6 4 0 347 338 336 334 320 305 298 287 287 283 285 282 282 261 252 256 265 274 275 275 274 271 269 268 263 259 256 254 253 253 252 251 247 246 247 247 243 239
31 26 359 348 347 340 338 337 332 328 318 313 299 289 282 281 284 272 269 260 255 263 271 276 277 276 274 273 274 268 262 258 255 253 252 253 251 253 250 249 249 248 242
24 17 343 334 348 346 342 326 330 331 324 313 300 287 279 275 279 273 265 258 253 260 271 276 277 277 279 278 276 272 266 264 258 254 253 253 254 253 255 252 249 253 247
9 11 333 325 346 342 328 322 333 329 318 312 299 286 275 269 269 274 268 253 247 250 259 270 276 280 280 281 280 277 272 268 263 257 255 254 254 256 256 256 252 251 253
8 1 335 329 343 327 322 322 322 321 310 305 304 298 280 271 266 259 261 262 259 257 258 262 263 271 275 279 280 276 275 271 265 261 257 255 254 255 256 256 256 254 254
322 346 311 309 311 301 297 305 310 311 312 317 312 306 289 270 263 262 273 273 265 264 264 262 260 258 264 271 276 278 276 274 270 265 261 256 256 256 257 257 259 258 258
244 274 267 276 286 290 301 304 304 304 309 330 314 313 311 307 297 293 276 261 260 268 270 271 267 262 261 261 267 274 277 276 275 270 267 261 258 257 257 257 259 259 259
229 254 267 273 284 283 282 287 292 298 300 305 305 286 294 290 306 272 263 269 266 268 269 272 269 267 265 264 265 270 273 274 274 271 271 266 260 258 257 258 258 258 257
232 239 252 259 268 274 278 280 289 280 277 285 289 265 257 272 290 300 289 275 281 279 272 277 272 267 263 260 263 270 273 277 275 272 271 273 266 262 261 260 259 258 257
229 235 243 252 262 268 271 278 281 276 267 266 271 277 277 277 266 275 290 292 285 272 268 268 268 266 264 265 262 267 270 272 274 273 271 272 274 268 264 263 261 260 259
241 238 242 244 257 265 267 268 266 267 266 266 267 265 266 265 268 271 281 291 294 288 279 272 268 268 268 268 267 273 272 272 274 275 272 271 275 273 266 266 265 263 262
257 245 252 252 261 265 265 264 264 263 262 263 262 264 264 265 267 270 277 287 291 290 280 269 259 261 270 269 272 273 272 273 274 276 273 271 273 277 270 268 268 267 265
250 249 252 255 258 263 270 266 266 261 265 263 267 265 269 268 265 264 268 281 291 293 283 275 270 255 263 267 273 276 278 280 276 276 274 274 275 277 272 268 270 270 266
258 257 255 257 263 263 265 265 263 266 268 265 263 262 266 268 263 262 263 262 272 289 293 290 292 279 279 275 274 275 274 281 282 279 275 273 275 275 268 266 268 269 267
253 258 268 262 266 268 267 266 269 270 268 266 264 265 267 271 267 264 263 260 256 266 281 290 294 295 293 290 285 281 278 282 281 280 278 273 271 271 269 265 265 266 265
254 259 263 267 268 268 269 269 272 275 275 275 275 274 274 273 271 269 267 264 261 261 275 286 289 294 290 287 289 285 279 276 275 277 279 276 274 271 268 264 264 265 265
260 259 266 269 269 271 269 269 275 280 275 275 276 275 277 279 275 273 270 267 268 265 270 283 290 293 287 284 286 286 286 283 277 277 278 277 277 273 267 263 261 262 264
266 265 269 268 272 271 269 269 273 278 276 273 272 273 276 276 277 275 272 271 271 274 272 279 287 290 290 289 288 288 284 281 281 278 277 276 277 274 266 262 259 261 262
257 265 269 273 275 275 272 274 279 278 276 276 273 271 274 272 272 272 273 268 270 273 275 280 285 290 289 290 286 287 289 285 288 289 287 284 283 281 270 265 261 257 251
262 263 271 275 275 277 278 286 289 289 284 285 282 275 274 275 277 277 278 274 275 278 279 281 284 289 288 290 286 285 287 294 293 286 290 288 287 281 271 264 255 240 239
268 271 275 279 283 287 294 299 301 296 292 289 291 288 282 280 283 285 285 284 282 281 281 278 281 284 286 286 291 287 288 293 295 296 292 293 292 288 285 262 233 238 245
269 277 276 278 283 290 301 302 302 302 295 293 293 294 295 294 295 287 289 292 290 287 283 278 276 277 281 283 284 284 283 287 287 291 300 295 300 296 296 292 253 253 264
280 281 280 280 286 295 305 308 309 305 296 294 292 289 289 293 295 296 294 294 292 292 288 284 278 280 283 284 276 272 276 287 290 299 300 288 305 305 314 318 308 288 281
299 295 293 289 289 298 311 315 316 307 304 303 299 297 297 295 299 303 301 297 298 298 297 290 288 288 290 295 291 285 280 285 292 300 321 284 290 314 323 328 332 343 323
298 301 302 298 297 302 311 316 318 309 307 307 305 301 302 305 306 309 304 298 297 300 303 304 308 313 314 313 309 289 271 269 281 292 300 300 289 319 343 353 358 351 347
Height
1494 1494 1494 1494 1494 1493 1493 1493 1493 1493 1492 1492 1492 1492 1492 1492 1492 1492 1492 1492 1492 1492 1492 1492 1492 1492 1492 1492 1492 1492 1492 1492 1493 1493 1493 1494 1494 1495 1495 1496 1496 1497 1498
1493 1493 1492 1492 1492 1491 1491 1491 1490 1490 1490 1489 1489 1489 1488 1488 1488 1488 1488 1488 1488 1488 1488 1488 1488 1488 1488 1488 1488 1488 1488 1487 1488 1488 1488 1488 1489 1489 1490 1491 1491 1492 1493
1491 1491 1491 1490 1490 1489 1489 1488 1488 1487 1486 1486 1485 1485 1484 1484 1484 1483 1483 1483 1483 1483 1483 1483 1483 1483 1483 1483 1483 1483 1483 1483 1482 1482 1482 1483 1483 1483 1484 1485 1486 1486 1487
1490 1489 1489 1488 1488 1487 1486 1486 1485 1484 1484 1483 1482 1481 1480 1480 1479 1479 1479 1479 1478 1478 1478 1478 1478 1478 1477 1477 1477 1477 1477 1477 1477 1476 1476 1477 1477 1477 1478 1479 1480 1480 1481
1488 1487 1487 1486 1486 1485 1484 1483 1482 1482 1481 1479 1478 1477 1476 1475 1475 1474 1474 1474 1474 1474 1473 1473 1473 1473 1472 1472 1471 1471 1471 1471 1471 1470 1470 1471 1471 1472 1472 1473 1474 1474 1475
1486 1485 1485 1484 1484 1483 1482 1481 1480 1479 1478 1477 1475 1473 1472 1471 1470 1470 1470 1469 1469 1469 1468 1468 1468 1467 1467 1466 1466 1466 1465 1465 1465 1464 1464 1464 1465 1466 1466 1467 1468 1468 1468
1483 1483 1482 1482 1481 1480 1479 1478 1477 1476 1475 1474 1472 1469 1467 1467 1466 1466 1466 1465 1465 1464 1464 1463 1462 1462 1461 1461 1460 1460 1459 1459 1458 1458 1458 1458 1458 1459 1460 1461 1461 1462 1462
1481 1480 1480 1479 1478 1478 1477 1476 1475 1473 1472 1472 1470 1467 1464 1462 1462 1462 1461 1460 1459 1459 1459 1458 1457 1456 1455 1454 1454 1453 1453 1452 1452 1452 1452 1452 1451 1452 1453 1454 1454 1455 1455
1478 1478 1477 1476 1476 1475 1474 1473 1472 1471 1469 1469 1469 1468 1465 1460 1457 1455 1456 1456 1455 1455 1454 1453 1452 1451 1450 1448 1448 1447 1447 1446 1445 1446 1445 1445 1445 1445 1446 1446 1447 1447 1448
1475 1474 1474 1473 1473 1472 1471 1470 1469 1468 1467 1465 1465 1465 1464 1461 1459 1452 1451 1451 1451 1450 1449 1448 1447 1446 1444 1443 1442 1441 1440 1439 1439 1439 1439 1439 1438 1438 1439 1439 1439 1440 1440
1471 1471 1471 1470 1469 1468 1467 1467 1466 1465 1464 1462 1461 1461 1459 1458 1457 1454 1447 1445 1444 1444 1443 1442 1441 1440 1439 1437 1436 1435 1434 1433 1432 1432 1432 1432 1431 1432 1431 1432 1432 1432 1433
1467 1467 1467 1466 1465 1464 1464 1463 1462 1461 1460 1459 1458 1456 1455 1453 1452 1450 1446 1441 1439 1437 1437 1436 1435 1434 1433 1431 1430 1428 1427 1426 1426 1425 1425 1424 1424 1424 1424 1424 1425 1425 1425
1463 1463 1463 1462 1461 1461 1460 1459 1458 1457 1456 1455 1453 1452 1451 1449 1448 1447 1444 1439 1435 1432 1431 1430 1429 1428 1427 1425 1423 1422 1421 1420 1419 1418 1417 1417 1417 1416 1416 1417 1417 1417 1418
1460 1459 1459 1458 1457 1457 1456 1455 1454 1453 1451 1450 1449 1448 1446 1444 1444 1442 1441 1437 1432 1427 1425 1424 1423 1422 1421 1419 1417 1416 1414 1413 1412 1411 1410 1410 1410 1409 1409 1409 1409 1410 1410
1456 1455 1455 1454 1453 1452 1451 1450 1449 1448 1446 1445 1444 1442 1440 1439 1438 1437 1436 1434 1432 1425 1418 1417 1417 1416 1415 1413 1411 1409 1408 1406 1405 1404 1403 1402 1402 1402 1401 1401 1401 1402 1402
1451 1451 1450 1449 1449 1448 1447 1446 1444 1443 1441 1440 1438 1436 1435 1433 1432 1431 1429 1428 1427 1424 1416 1412 1412 1411 1409 1407 1405 1403 1401 1400 1398 1397 1396 1395 1394 1394 1394 1394 1394 1394 1395
1447 1446 1446 1445 1444 1443 1442 1441 1439 1437 1436 1434 1433 1431 1429 1428 1426 1424 1423 1422 1421 1419 1414 1408 1407 1405 1403 1400 1398 1397 1395 1393 1391 1390 1389 1388 1387 1387 1387 1387 1387 1387 1388
1443 1443 1442 1441 1440 1439 1438 1436 1434 1432 1431 1429 1427 1426 1424 1422 1420 1419 1417 1416 1414 1413 1410 1405 1401 1399 1397 1395 1393 1391 1389 1387 1385 1383 1382 1381 1380 1380 1380 1380 1380 1381 1382
1439 1439 1438 1437 1436 1434 1433 1432 1430 1427 1426 1424 1422 1420 1419 1417 1415 1413 1412 1410 1408 1407 1405 1401 1396 1394 1392 1390 1387 1384 1382 1381 1379 1377 1376 1375 1374 1373 1373 1373 1373 1374 1375
1435 1434 1433 1432 1431 1430 1429 1427 1425 1423 1421 1419 1417 1416 1414 1412 1410 1408 1407 1404 1403 1401 1399 1396 1392 1389 1386 1384 1382 1379 1376 1375 1373 1372 1370 1369 1368 1367 1367 1367 1367 1368 1369
1431 1430 1429 1428 1427 1426 1424 1423 1420 1418 1416 1414 1412 1411 1409 1407 1405 1404 1402 1399 1398 1395 1393 1390 1387 1384 1381 1379 1377 1375 1372 1369 1367 1367 1365 1364 1363 1362 1362 1362 1363 1363 1364
1427 1426 1425 1424 1422 1421 1420 1419 1417 1414 1412 1409 1407 1405 1403 1401 1400 1398 1396 1394 1393 1391 1387 1385 1382 1380 1377 1375 1373 1371 1369 1365 1362 1363 1361 1359 1359 1358 1358 1358 1359 1359 1360
1422 1421 1420 1419 1418 1417 1416 1414 1412 1410 1407 1405 1402 1400 1398 1396 1394 1392 1390 1388 1386 1385 1383 1381 1377 1375 1373 1371 1369 1367 1365 1362 1360 1359 1357 1355 1355 1354 1354 1355 1355 1355 1356
1418 1417 1416 1415 1414 1413 1412 1410 1408 1405 1403 1400 1398 1396 1393 1391 1389 1387 1384 1382 1380 1378 1377 1374 1372 1370 1368 1366 1365 1363 1361 1359 1356 1355 1354 1352 1351 1351 1352 1352 1352 1352 1353
1415 1414 1412 1411 1410 1408 1407 1405 1403 1400 1398 1395 1394 1392 1389 1387 1385 1383 1380 1377 1374 1372 1371 1369 1367 1365 1363 1362 1361 1359 1357 1356 1352 1351 1352 1350 1349 1349 1349 1349 1350 1350 1350
1411 1410 1409 1408 1406 1404 1403 1401 1399 1396 1393 1391 1389 1387 1385 1383 1380 1378 1376 1373 1369 1367 1365 1363 1361 1360 1358 1357 1356 1355 1354 1353 1350 1349 1349 1349 1348 1348 1348 1348 1348 1348 1348